Falfurrias, TX

1:21 AM CST on December 07, 2019 (GMT -0600)
Falfurrias

Weather History for KBKS - October, 2019

Change the Weather History Date:

Monday, October 28, 2019

  Actual Average (KNQI) Record (KNQI)
Temperature  
Mean Temperature 78 °F -  
Max Temperature 91 °F 80 °F 95 °F (2015)
Min Temperature 64 °F 61 °F 39 °F (2008)
Cooling Degree Days 12    
Growing Degree Days 28 (Base 50)    
Moisture  
Dew Point 66 °F    
Average Humidity 72    
Maximum Humidity 90    
Minimum Humidity 42    
Precipitation  
Precipitation 0.00 in - - ()
Sea Level Pressure  
Sea Level Pressure 29.89 in    
Wind  
Wind Speed 5 mph ()    
Max Wind Speed 15 mph    
Max Gust Speed 21 mph    
Visibility 8.3 miles    
Events      
Averages and records for this station are not official NWS values.
T = Trace of Precipitation, MM = Missing Value Source: Averaged Metar Reports

Daily Weather History Graph

Daily Weather History Graph

Search for Another Location

Airport or City:

Astronomy

Oct. 28, 2019 Rise Set
Actual Time 7:39 AM CDT 6:52 PM CDT
Civil Twilight 7:16 AM CDT 7:16 PM CDT
Nautical Twilight 6:48 AM CDT 7:43 PM CDT
Astronomical Twilight 6:21 AM CDT 8:10 PM CDT
Moon 8:05 AM CDT (10/28) 7:39 PM CDT (10/28)
Length of Visible Light 12h 00m
Length of Day
11h 12m
New Moon, 0% of the Moon is Illuminated
Oct 28
New Moon
Nov 4
First Quarter
Nov 12
Full
Nov 19
Last Quarter
Nov 26
New

Hourly Weather History & Observations

Time (CDT) Temp. Heat Index Dew Point Humidity Pressure Visibility Wind Dir Wind Speed Gust Speed Precip Events Conditions
12:15 AM 69.1 °F - 61.5 °F 77% 29.92 in 10.0 mi SE 4.6 mph - N/A   Clear
12:35 AM 68.7 °F - 61.7 °F 78% 29.92 in 10.0 mi ESE 5.8 mph - N/A   Clear
12:55 AM 68.5 °F - 61.9 °F 79% 29.92 in 10.0 mi SE 3.5 mph - N/A   Clear
1:15 AM 67.5 °F - 61.7 °F 82% 29.92 in 10.0 mi ESE 5.8 mph - N/A   Clear
1:35 AM 67.3 °F - 61.9 °F 83% 29.92 in 10.0 mi ESE 3.5 mph - N/A   Scattered Clouds
1:55 AM 66.7 °F - 61.7 °F 84% 29.92 in 10.0 mi ESE 4.6 mph - N/A   Scattered Clouds
2:15 AM 66.7 °F - 62.1 °F 85% 29.92 in 10.0 mi East 3.5 mph - N/A   Clear
2:35 AM 66.6 °F - 62.1 °F 85% 29.92 in 10.0 mi Calm Calm - N/A   Clear
2:55 AM 66.2 °F - 62.1 °F 86% 29.91 in 10.0 mi ESE 4.6 mph - N/A   Clear
3:15 AM 66.0 °F - 61.7 °F 86% 29.91 in 10.0 mi Calm Calm - N/A   Clear
3:35 AM 65.3 °F - 61.7 °F 88% 29.91 in 10.0 mi Calm Calm - N/A   Clear
3:55 AM 65.1 °F - 61.5 °F 88% 29.90 in 10.0 mi Calm Calm - N/A   Clear
4:15 AM 64.6 °F - 61.2 °F 89% 29.90 in 10.0 mi ESE 4.6 mph - N/A   Clear
4:35 AM 64.9 °F - 61.7 °F 89% 29.89 in 10.0 mi East 3.5 mph - N/A   Clear
4:55 AM 65.1 °F - 61.9 °F 89% 29.89 in 10.0 mi Calm Calm - N/A   Clear
5:15 AM 65.5 °F - 62.6 °F 90% 29.90 in 10.0 mi Calm Calm - N/A   Clear
5:35 AM 65.5 °F - 62.2 °F 89% 29.90 in 10.0 mi ENE 3.5 mph - N/A   Clear
5:55 AM 65.8 °F - 62.6 °F 89% 29.90 in 10.0 mi ENE 3.5 mph - N/A   Clear
6:15 AM 66.4 °F - 63.0 °F 89% 29.90 in 10.0 mi ENE 4.6 mph - N/A   Clear
6:35 AM 66.2 °F - 62.6 °F 88% 29.91 in 10.0 mi ENE 3.5 mph - N/A   Clear
6:55 AM 66.2 °F - 63.0 °F 89% 29.90 in 10.0 mi East 4.6 mph - N/A   Clear
7:15 AM 68.9 °F - 64.6 °F 86% 29.91 in 10.0 mi Calm Calm - N/A   Clear
7:35 AM 67.5 °F - 63.5 °F 87% 29.91 in 10.0 mi NNW 5.8 mph - N/A   Clear
7:55 AM 67.3 °F - 63.7 °F 88% 29.92 in 10.0 mi North 3.5 mph - N/A   Clear
8:15 AM 68.0 °F - 64.0 °F 87% 29.92 in 10.0 mi Calm Calm - N/A   Clear
8:35 AM 69.1 °F - 64.8 °F 86% 29.92 in 10.0 mi Calm Calm - N/A   Clear
8:55 AM 70.2 °F - 65.5 °F 85% 29.93 in 10.0 mi Calm Calm - N/A   Clear
9:15 AM 70.9 °F - 65.7 °F 83% 29.93 in 10.0 mi Calm Calm - N/A   Clear
9:35 AM 71.8 °F - 65.8 °F 81% 29.93 in 10.0 mi Calm Calm - N/A   Clear
9:55 AM 72.9 °F - 65.8 °F 79% 29.93 in 10.0 mi Calm Calm - N/A   Clear
10:15 AM 73.8 °F - 66.6 °F 78% 29.93 in 10.0 mi Calm Calm - N/A   Clear
10:35 AM 80.2 °F 82.7 °F 67.5 °F 65% 29.93 in 7.0 mi SE 12.7 mph 17.3 mph N/A   Scattered Clouds
10:55 AM 82.6 °F 85.3 °F 67.3 °F 60% 29.93 in 1.8 mi SE 11.5 mph 17.3 mph N/A   Scattered Clouds
11:15 AM 83.3 °F 85.7 °F 66.7 °F 57% 29.93 in 1.5 mi SSE 13.8 mph 17.3 mph N/A   Scattered Clouds
11:35 AM 84.4 °F 86.8 °F 66.4 °F 55% 29.93 in 1.5 mi SSE 11.5 mph 18.4 mph N/A   Scattered Clouds
11:55 AM 85.5 °F 87.4 °F 65.7 °F 51% 29.92 in 1.5 mi SE 15.0 mph 19.6 mph N/A   Scattered Clouds
12:15 PM 84.6 °F 86.8 °F 66.4 °F 54% 29.91 in 2.5 mi SSE 12.7 mph - N/A   Scattered Clouds
12:35 PM 87.1 °F 89.2 °F 65.7 °F 49% 29.91 in 4.0 mi SSE 12.7 mph 18.4 mph N/A   Scattered Clouds
12:55 PM 86.0 °F 88.2 °F 66.2 °F 51% 29.89 in 2.0 mi SE 10.4 mph 19.6 mph N/A   Mostly Cloudy
1:15 PM 88.2 °F 90.3 °F 65.8 °F 47% 29.88 in 7.0 mi SE 11.5 mph 18.4 mph N/A   Scattered Clouds
1:35 PM 87.6 °F 89.7 °F 65.8 °F 48% 29.87 in 4.0 mi ESE 10.4 mph 18.4 mph N/A   Scattered Clouds
1:55 PM 88.2 °F 89.9 °F 65.1 °F 46% 29.86 in 2.5 mi SE 11.5 mph - N/A   Scattered Clouds
2:15 PM 90.3 °F 92.2 °F 64.8 °F 43% 29.84 in 4.0 mi South 10.4 mph 17.3 mph N/A   Scattered Clouds
2:35 PM 90.1 °F 92.0 °F 64.8 °F 43% 29.84 in 7.0 mi South 11.5 mph 17.3 mph N/A   Scattered Clouds
2:55 PM 89.4 °F 91.2 °F 65.1 °F 44% 29.83 in 1.2 mi SE 10.4 mph 16.1 mph N/A   Mostly Cloudy
3:15 PM 91.4 °F 93.6 °F 65.5 °F 42% 29.83 in 3.0 mi ESE 8.1 mph 16.1 mph N/A   Mostly Cloudy
3:35 PM 91.4 °F 94.0 °F 66.2 °F 43% 29.82 in 0.8 mi ESE 11.5 mph 20.7 mph N/A   Overcast
3:55 PM 89.4 °F 92.7 °F 67.1 °F 48% 29.82 in 1.8 mi ESE 15.0 mph 20.7 mph N/A   Overcast
4:15 PM 89.6 °F 93.4 °F 68.2 °F 49% 29.82 in 7.0 mi ESE 12.7 mph 18.4 mph N/A   Mostly Cloudy
4:35 PM 89.2 °F 92.8 °F 67.6 °F 49% 29.82 in 10.0 mi ESE 9.2 mph 18.4 mph N/A   Mostly Cloudy
4:55 PM 88.5 °F 92.3 °F 68.2 °F 51% 29.82 in 5.0 mi ESE 12.7 mph - N/A   Scattered Clouds
5:15 PM 86.5 °F 90.3 °F 68.5 °F 55% 29.82 in 10.0 mi East 13.8 mph 18.4 mph N/A   Mostly Cloudy
5:35 PM 86.9 °F 90.6 °F 68.5 °F 54% 29.82 in 10.0 mi ESE 15.0 mph - N/A   Scattered Clouds
5:55 PM 85.3 °F 89.1 °F 68.9 °F 58% 29.83 in 10.0 mi East 15.0 mph 19.6 mph N/A   Scattered Clouds
6:15 PM 84.2 °F 87.9 °F 68.9 °F 60% 29.83 in 10.0 mi ESE 12.7 mph 19.6 mph N/A   Clear
6:35 PM 83.1 °F 86.6 °F 68.9 °F 62% 29.83 in 10.0 mi ESE 11.5 mph 17.3 mph N/A   Clear
6:55 PM 81.5 °F 84.6 °F 68.9 °F 65% 29.84 in 10.0 mi ESE 12.7 mph 16.1 mph N/A   Clear
7:15 PM 80.6 °F 83.5 °F 68.7 °F 67% 29.84 in 10.0 mi ESE 10.4 mph 16.1 mph N/A   Clear
7:35 PM 79.9 °F - 68.9 °F 69% 29.85 in 10.0 mi ESE 8.1 mph - N/A   Clear
7:55 PM 79.3 °F - 69.3 °F 71% 29.85 in 10.0 mi ESE 9.2 mph - N/A   Clear
8:15 PM 78.8 °F - 69.4 °F 73% 29.86 in 10.0 mi ESE 9.2 mph - N/A   Clear
8:35 PM 78.1 °F - 69.8 °F 76% 29.87 in 10.0 mi ESE 6.9 mph - N/A   Clear
8:55 PM 77.9 °F - 70.3 °F 77% 29.87 in 10.0 mi ESE 5.8 mph - N/A   Clear
9:15 PM 77.2 °F - 70.7 °F 80% 29.88 in 10.0 mi East 4.6 mph - N/A   Clear
9:35 PM 76.6 °F - 70.7 °F 82% 29.88 in 10.0 mi ESE 5.8 mph - N/A   Clear
9:55 PM 76.6 °F - 71.1 °F 83% 29.89 in 10.0 mi ESE 6.9 mph - N/A   Clear
10:15 PM 76.3 °F - 71.1 °F 84% 29.89 in 10.0 mi ESE 4.6 mph - N/A   Clear
10:35 PM 75.7 °F - 70.9 °F 85% 29.90 in 10.0 mi ESE 4.6 mph - N/A   Clear
10:55 PM 75.4 °F - 71.1 °F 86% 29.90 in 10.0 mi ESE 4.6 mph - N/A   Clear
11:15 PM 75.6 °F - 71.6 °F 87% 29.90 in 10.0 mi ESE 3.5 mph - N/A   Scattered Clouds
11:35 PM 76.1 °F - 72.0 °F 87% 29.90 in 10.0 mi ESE 4.6 mph - N/A   Scattered Clouds
11:55 PM 75.6 °F - 71.6 °F 87% 29.90 in 10.0 mi ESE 3.5 mph - N/A   Mostly Cloudy